Location: Burbank
(38.7788°N, 114.0429°W)
Time: 01:08:11
(UTC+00:00)

Explorer 7 - Pass Details

Date: 18 May 2026
Orbit: 426 x 534 km, 50.2° (Epoch: 10 June)

Event Time Altitude Azimuth Distance (km) Brightness Sun altitude
Exits shadow 09:42:45 12° 108° (ESE) 1,449 9.1 -24.1°
Drops below altitude 10° 09:43:19 10° 100° (E) 1,553 9.4 -24.1°
Sets 09:46:21 0° 72° (ENE) 2,451 10.9 -23.8°
